CZ-6A DEB

Satellite information

Favourite Embed

Satellite Type and Status

DEBRISIN ORBIT

Key statistics

Satellite CZ-6A DEB at a glance.

Uptime

1024

Days in orbit

Revolutions

≈ 14.3

Per day

Orbit

SSO

Sun Synchronous Orbit

Inclination

98.8

Latest

Satellite identification and parameters

Extended collection of information and parameters for CZ-6A DEB.

Object identification

Identified? True

Debris? True

Object name: CZ-6A DEB

International designator: 2022-151QL

Object number (NORAD): 54899

Object ID (CCSDS): 54899

Country: PEOPLES REPUBLIC OF CHINA (PRC)

Current information (Y/N): Y

RCS size: SMALL

Orbital parameters

Period: 101.004 minutes

Inclination: 98.789 deg

SMA: 7184.312 km

Apoapsis: 826.757 km

Periapsis: 785.597 km

RAAN: 256.7547 deg

Eccentricy: 0.00286455

Argument of periapsis: 75.7887 deg

Mean anomaly: 284.6472 deg

Mean motion: 14.25689585 rev/day

Mean motion (dot): 0.00005253 rev/day2

B* drag term: 0.0022225853 1/REarth

Two-line elements (TLE)

Creation date: Aug. 31, 2025, 2:26 a.m.

Reference frame: TEME

Reference center: EARTH

Epoch: Aug. 30, 2025, 11:02 p.m. UTC

TLE line 0: 0 CZ-6A DEB

TLE line 1: 1 54899U 22151QL 25242.96000973 .00005253 00000-0 22226-2 0 9996

TLE line 2: 2 54899 98.7890 256.7547 0028645 75.7887 284.6472 14.25689585142295

Live tracking on map

Real-time ground track for satellite CZ-6A DEB.

In-orbit conjunctions

A list of the most updated potential collisions computed for object CZ-6A DEB.

Target Orbit TCA Probability of collision Miss distance Type
CZ-6A DEB LEO 2025-06-24 13:23:10 0.0001297488 614.0 (m) DEBRIS
NOAA 14 DEB SSO 2024-08-12 01:17:52 0.0002070855 63.0 (m) DEBRIS
SL-3 DEB LEO 2024-06-09 23:28:12 0.0002146949 118.0 (m) DEBRIS

Associated space launch

Chinese satellite reported for atmospheric/ocean/environmental/spatial parameter research purposes, details TBD.

CZ-6A DEB was lifted into orbit during the mission ‘Long March 6A | Yunhai 3’, on board a Long March 6A space rocket.

The launch took place on Nov. 11, 2022, 10:52 p.m. from Launch Complex 9A.

For more information about the launch, click the button.

Launch to space Long March 6A | Yunhai 3
Long March 6A | Yunhai 3

Agency: N/A

Status: Launch Successful

Launch date: Nov. 11, 2022, 10:52 p.m. UTC

Rocket: Long March 6A

Launch pad: Launch Complex 9A

Location: Taiyuan Satellite Launch Center, People's Republic of China

...

Latest news about this satellite

There are no fresh news available about this satellite. Check back as we update our databases every day.


Newsletter sign-up

Weekly statistics, charts and insights to help you stay on top of the space industry.